Meteo pe oră la Buenos Aires

Astăzi, 22 Ianuarie, Vineri

Timp Temperatura Precipitaţii Vânt Presiune Umiditate
00:00 +29°C° 0 mm 7 m/s 763 mmHg 45%
01:00 +28°C° 0 mm 6 m/s 763 mmHg 49%
02:00 +27°C° 0 mm 6 m/s 763 mmHg 54%
03:00 +26°C° 0 mm 6 m/s 763 mmHg 57%
04:00 +25°C° 0 mm 5 m/s 763 mmHg 61%
05:00 +23°C° 0 mm 5 m/s 764 mmHg 64%
06:00 +25°C° 0 mm 5 m/s 764 mmHg 62%
07:00 +25°C° 0 mm 5 m/s 764 mmHg 60%
08:00 +26°C° 0 mm 5 m/s 764 mmHg 58%
09:00 +28°C° 0 mm 4 m/s 764 mmHg 51%
10:00 +29°C° 0 mm 4 m/s 763 mmHg 44%
11:00 +31°C° 0 mm 3 m/s 763 mmHg 37%
12:00 +33°C° 0 mm 4 m/s 762 mmHg 33%
13:00 +35°C° 0 mm 4 m/s 762 mmHg 28%
14:00 +36°C° 0 mm 4 m/s 761 mmHg 24%
15:00 +35°C° 0 mm 5 m/s 761 mmHg 27%
16:00 +35°C° 0 mm 6 m/s 760 mmHg 30%
17:00 +34°C° 0 mm 7 m/s 759 mmHg 33%
18:00 +33°C° 0 mm 7 m/s 760 mmHg 40%
19:00 +32°C° 0 mm 7 m/s 760 mmHg 46%
20:00 +29°C° 0 mm 6 m/s 760 mmHg 53%
21:00 +29°C° 0 mm 6 m/s 760 mmHg 54%
22:00 +29°C° 0 mm 6 m/s 761 mmHg 55%
23:00 +30°C° 0 mm 6 m/s 761 mmHg 56%

Mâine, 23 Ianuarie, Sâmbătă

Timp Temperatura Precipitaţii Vânt Presiune Umiditate
00:00 +29°C° 0 mm 6 m/s 761 mmHg 60%
01:00 +28°C° 0 mm 6 m/s 760 mmHg 64%
02:00 +28°C° 0 mm 5 m/s 760 mmHg 68%
03:00 +27°C° 0 mm 5 m/s 760 mmHg 70%
04:00 +27°C° 0 mm 4 m/s 760 mmHg 72%
05:00 +26°C° 0 mm 4 m/s 760 mmHg 74%
06:00 +27°C° 0 mm 4 m/s 760 mmHg 70%
07:00 +28°C° 0 mm 4 m/s 760 mmHg 66%
08:00 +29°C° 0 mm 4 m/s 760 mmHg 62%
09:00 +31°C° 0 mm 3 m/s 760 mmHg 55%
10:00 +34°C° 0 mm 3 m/s 759 mmHg 47%
11:00 +36°C° 0 mm 3 m/s 759 mmHg 40%
12:00 +37°C° 0 mm 3 m/s 758 mmHg 36%
13:00 +38°C° 0 mm 4 m/s 757 mmHg 32%
14:00 +40°C° 0 mm 4 m/s 756 mmHg 27%
15:00 +40°C° 0 mm 5 m/s 756 mmHg 28%
16:00 +39°C° 0 mm 5 m/s 755 mmHg 29%
17:00 +39°C° 0 mm 6 m/s 755 mmHg 29%
18:00 +36°C° 0 mm 6 m/s 755 mmHg 36%
19:00 +34°C° 0 mm 6 m/s 755 mmHg 42%
20:00 +32°C° 0 mm 6 m/s 755 mmHg 48%
21:00 +32°C° 0 mm 5 m/s 756 mmHg 50%
22:00 +32°C° 0 mm 5 m/s 756 mmHg 52%
23:00 +30°C° 0 mm 4 m/s 757 mmHg 54%

Poimâine, 24 Ianuarie, Duminică

Timp Temperatura Precipitaţii Vânt Presiune Umiditate
00:00 +30°C° 0 mm 4 m/s 757 mmHg 55%
01:00 +30°C° 0 mm 5 m/s 756 mmHg 55%
02:00 +30°C° 0 mm 6 m/s 756 mmHg 56%
03:00 +29°C° 0 mm 5 m/s 756 mmHg 59%
04:00 +29°C° 0 mm 4 m/s 756 mmHg 62%
05:00 +29°C° 0 mm 4 m/s 756 mmHg 65%
06:00 +30°C° 0 mm 3 m/s 756 mmHg 61%
07:00 +31°C° 0 mm 3 m/s 756 mmHg 58%
08:00 +33°C° 0 mm 3 m/s 756 mmHg 54%
09:00 +35°C° 0 mm 2 m/s 756 mmHg 46%
10:00 +37°C° 0 mm 2 m/s 756 mmHg 38%
11:00 +39°C° 0 mm 2 m/s 755 mmHg 29%
12:00 +40°C° 0 mm 3 m/s 754 mmHg 27%
13:00 +41°C° 0 mm 4 m/s 754 mmHg 24%
14:00 +42°C° 0 mm 4 m/s 753 mmHg 22%
15:00 +41°C° 0 mm 5 m/s 752 mmHg 24%
16:00 +40°C° 0 mm 6 m/s 752 mmHg 26%
17:00 +39°C° 0 mm 7 m/s 752 mmHg 28%
18:00 +38°C° 0 mm 7 m/s 752 mmHg 31%
19:00 +35°C° 0 mm 7 m/s 752 mmHg 34%
20:00 +33°C° 0 mm 7 m/s 752 mmHg 37%
21:00 +33°C° 0 mm 7 m/s 753 mmHg 39%
22:00 +33°C° 0 mm 7 m/s 753 mmHg 40%
23:00 +32°C° 0 mm 6 m/s 753 mmHg 41%

25 Ianuarie, Luni

Timp Temperatura Precipitaţii Vânt Presiune Umiditate
00:00 +32°C° 0 mm 5 m/s 753 mmHg 44%
01:00 +30°C° 0 mm 4 m/s 753 mmHg 46%
02:00 +30°C° 0 mm 3 m/s 752 mmHg 49%
03:00 +30°C° 0 mm 3 m/s 752 mmHg 50%
04:00 +30°C° 0 mm 3 m/s 752 mmHg 52%
05:00 +29°C° 0 mm 3 m/s 752 mmHg 54%
06:00 +31°C° 0 mm 3 m/s 752 mmHg 51%
07:00 +33°C° 0 mm 4 m/s 752 mmHg 49%
08:00 +34°C° 0 mm 4 m/s 753 mmHg 46%
09:00 +36°C° 0 mm 3 m/s 752 mmHg 40%
10:00 +38°C° 0 mm 3 m/s 752 mmHg 33%
11:00 +40°C° 0 mm 3 m/s 751 mmHg 27%
12:00 +42°C° 0 mm 3 m/s 750 mmHg 24%
13:00 +42°C° 0 mm 2 m/s 750 mmHg 20%
14:00 +43°C° 0 mm 2 m/s 749 mmHg 17%
15:00 +44°C° 0 mm 3 m/s 749 mmHg 18%
16:00 +43°C° 0 mm 4 m/s 748 mmHg 19%
17:00 +42°C° 0 mm 5 m/s 748 mmHg 20%
18:00 +41°C° 0 mm 5 m/s 748 mmHg 25%
19:00 +39°C° 0 mm 5 m/s 748 mmHg 30%
20:00 +36°C° 0 mm 5 m/s 749 mmHg 34%
21:00 +36°C° 0.1 mm 5 m/s 749 mmHg 37%
22:00 +35°C° 0.1 mm 4 m/s 749 mmHg 39%
23:00 +34°C° 0.1 mm 4 m/s 750 mmHg 41%

26 Ianuarie, Marţi

Timp Temperatura Precipitaţii Vânt Presiune Umiditate
00:00 +33°C° 0.6 mm 3 m/s 750 mmHg 48%
01:00 +31°C° 0.6 mm 3 m/s 750 mmHg 55%
02:00 +29°C° 0.6 mm 2 m/s 750 mmHg 61%
03:00 +29°C° 1.5 mm 3 m/s 750 mmHg 64%
04:00 +29°C° 1.5 mm 3 m/s 750 mmHg 66%
05:00 +28°C° 1.5 mm 3 m/s 751 mmHg 68%
06:00 +28°C° 1.1 mm 4 m/s 751 mmHg 70%
07:00 +27°C° 1.1 mm 4 m/s 751 mmHg 72%
08:00 +27°C° 1.1 mm 5 m/s 752 mmHg 74%
09:00 +27°C° 2.3 mm 5 m/s 752 mmHg 72%
10:00 +28°C° 2.3 mm 4 m/s 752 mmHg 70%
11:00 +28°C° 2.3 mm 4 m/s 752 mmHg 68%
12:00 +28°C° 1.8 mm 5 m/s 751 mmHg 70%
13:00 +28°C° 1.8 mm 6 m/s 751 mmHg 71%
14:00 +27°C° 1.8 mm 7 m/s 751 mmHg 72%
15:00 +26°C° 5 mm 7 m/s 751 mmHg 77%
16:00 +26°C° 5 mm 7 m/s 751 mmHg 81%
17:00 +24°C° 5 mm 7 m/s 750 mmHg 85%
18:00 +23°C° 7.1 mm 8 m/s 750 mmHg 86%
19:00 +23°C° 7.1 mm 8 m/s 750 mmHg 87%
20:00 +22°C° 7.1 mm 9 m/s 750 mmHg 88%
21:00 +22°C° 4.8 mm 9 m/s 750 mmHg 86%
22:00 +22°C° 4.8 mm 9 m/s 750 mmHg 85%
23:00 +21°C° 4.8 mm 10 m/s 750 mmHg 83%

27 Ianuarie, Miercuri

Timp Temperatura Precipitaţii Vânt Presiune Umiditate
00:00 +22°C° 2.1 mm 10 m/s 750 mmHg 80%
01:00 +22°C° 2.1 mm 11 m/s 750 mmHg 77%
02:00 +22°C° 2.1 mm 11 m/s 749 mmHg 74%
03:00 +22°C° 0.3 mm 10 m/s 749 mmHg 75%
04:00 +22°C° 0.3 mm 9 m/s 750 mmHg 76%
05:00 +22°C° 0.3 mm 8 m/s 750 mmHg 78%
06:00 +22°C° 0 mm 7 m/s 751 mmHg 77%
07:00 +22°C° 0 mm 7 m/s 751 mmHg 77%
08:00 +22°C° 0 mm 7 m/s 752 mmHg 76%
09:00 +23°C° 0 mm 6 m/s 752 mmHg 71%
10:00 +26°C° 0 mm 5 m/s 753 mmHg 65%
11:00 +27°C° 0 mm 4 m/s 753 mmHg 60%
12:00 +28°C° 0 mm 4 m/s 753 mmHg 54%
13:00 +30°C° 0 mm 3 m/s 753 mmHg 48%
14:00 +31°C° 0 mm 3 m/s 752 mmHg 42%
15:00 +31°C° 0 mm 3 m/s 752 mmHg 42%
16:00 +31°C° 0 mm 3 m/s 752 mmHg 41%
17:00 +31°C° 0 mm 2 m/s 752 mmHg 41%
18:00 +30°C° 0 mm 3 m/s 753 mmHg 44%
19:00 +29°C° 0 mm 3 m/s 753 mmHg 48%
20:00 +28°C° 0 mm 4 m/s 754 mmHg 51%
21:00 +27°C° 0 mm 4 m/s 754 mmHg 57%
22:00 +26°C° 0 mm 5 m/s 755 mmHg 63%
23:00 +26°C° 0 mm 5 m/s 755 mmHg 68%
Arată mai mult

Formular de consimțământ

Meteoprog și furnizorii noștri de servicii pot stoca și accesa date personale, precum cookies, identificatori de dispozitiv sau alte tehnologii similare pe dispozitivul dumneavoastră și procesa astfel de date pentru a personaliza conținutul și reclamele, dar și pentru a oferi caracteristici de social media și pentru a analiza traficul.

  • Stocarea și/sau accesarea informațiilor pe dispozitivul dumneavoastră

    Cookies, identificatori de dispozitiv sau alte informații pot fi stocate sau accesate pe dispozitiv în scopurile indicate mai sus.

  • Reclame și conținut personalizat, evaluarea reclamelor și a conținutului, informații despre audiențe și dezvoltarea produselor

    Reclamele și conținutul pot fi personalizate pe baza unui profil. Pot fi adăugate date suplimentare pentru a personaliza mai bine reclamele și conținutul. Performanța reclamelor și conținutului poate fi măsurată. Pot fi obținute informații despre utilizatorii care au văzut reclamele și conținutul. Aceste date pot fi utilizate pentru a dezvolta sau îmbunătăți experiența utilizatorilor, sistemele și software-ul.

Dând clic pe ‘Sunt de acord’, permiteți utilizarea cookie-urilor menționate, a identificatorilor de dispozitiv, balizelor web sau altor tehnologii similare. Setările pot fi modificate din browser-ul dispozitivului dumneavoastră.

În anumite scopuri, interesele legitime pot prima asupra consimțământului. Puteți citi mai multe informații în acest sens în Politica privind Confidențialitatea Datelor și Cookie.